QPF
0.08 0.07 0.07 0.08 0.06 0.04 0.04 0.04 0.04 0.04 0.03 0.02 0.02 0.02 0.03 0.03 0.03 0.03 0.04 0.07 0.09 0.09 0.09 0.08 0.05 0.05 0.06 0.08 0.08 0.07 0.05 0.04 0.04 0.04 0.04 0.03 0.03 0.03
0.08 0.07 0.06 0.07 0.06 0.05 0.04 0.03 0.03 0.03 0.03 0.02 0.02 0.03 0.03 0.03 0.03 0.02 0.02 0.04 0.06 0.09 0.11 0.11 0.10 0.07 0.06 0.07 0.08 0.08 0.06 0.05 0.05 0.04 0.04 0.03 0.03 0.03
0.07 0.06 0.05 0.06 0.06 0.05 0.05 0.04 0.04 0.03 0.04 0.03 0.03 0.03 0.03 0.03 0.03 0.02 0.02 0.02 0.04 0.06 0.08 0.09 0.09 0.07 0.06 0.06 0.06 0.07 0.06 0.05 0.05 0.05 0.04 0.04 0.03 0.03
0.06 0.05 0.05 0.06 0.06 0.05 0.05 0.05 0.04 0.04 0.04 0.04 0.04 0.03 0.03 0.03 0.02 0.02 0.02 0.03 0.03 0.05 0.06 0.06 0.06 0.06 0.05 0.05 0.05 0.06 0.07 0.06 0.04 0.04 0.05 0.05 0.04 0.04
0.05 0.06 0.07 0.08 0.08 0.08 0.08 0.08 0.07 0.05 0.05 0.04 0.04 0.04 0.04 0.03 0.03 0.02 0.02 0.02 0.03 0.04 0.05 0.05 0.05 0.05 0.05 0.05 0.05 0.05 0.05 0.06 0.05 0.04 0.05 0.05 0.06 0.06
0.06 0.07 0.08 0.09 0.10 0.10 0.09 0.08 0.07 0.06 0.05 0.05 0.04 0.04 0.04 0.03 0.03 0.03 0.02 0.02 0.02 0.03 0.05 0.06 0.06 0.05 0.05 0.06 0.06 0.05 0.05 0.04 0.06 0.07 0.06 0.05 0.06 0.06
0.06 0.07 0.08 0.09 0.11 0.11 0.10 0.09 0.09 0.08 0.07 0.06 0.05 0.05 0.04 0.04 0.03 0.03 0.02 0.02 0.02 0.02 0.03 0.04 0.04 0.04 0.04 0.06 0.06 0.06 0.06 0.05 0.06 0.08 0.06 0.05 0.05 0.05
0.07 0.06 0.07 0.08 0.09 0.11 0.12 0.10 0.09 0.09 0.08 0.06 0.05 0.04 0.04 0.03 0.03 0.02 0.02 0.03 0.03 0.02 0.03 0.04 0.04 0.04 0.04 0.05 0.07 0.06 0.07 0.09 0.08 0.07 0.06 0.06 0.06 0.05
0.07 0.07 0.07 0.06 0.07 0.08 0.09 0.08 0.08 0.09 0.08 0.07 0.06 0.05 0.04 0.03 0.03 0.04 0.03 0.03 0.03 0.03 0.04 0.05 0.05 0.05 0.05 0.05 0.07 0.06 0.06 0.07 0.07 0.06 0.06 0.06 0.07 0.06
0.05 0.06 0.06 0.06 0.06 0.07 0.07 0.06 0.07 0.08 0.08 0.07 0.07 0.06 0.06 0.05 0.06 0.06 0.06 0.06 0.06 0.06 0.07 0.08 0.08 0.07 0.06 0.06 0.06 0.06 0.05 0.06 0.06 0.06 0.06 0.07 0.07 0.06
0.05 0.05 0.06 0.06 0.06 0.08 0.08 0.07 0.07 0.07 0.07 0.08 0.09 0.09 0.09 0.08 0.08 0.07 0.06 0.07 0.07 0.07 0.07 0.08 0.08 0.07 0.06 0.06 0.07 0.07 0.06 0.06 0.06 0.07 0.07 0.07 0.07 0.06
0.05 0.05 0.06 0.07 0.07 0.08 0.08 0.08 0.07 0.06 0.05 0.05 0.06 0.06 0.06 0.06 0.06 0.06 0.06 0.06 0.07 0.06 0.05 0.05 0.06 0.05 0.05 0.06 0.06 0.07 0.07 0.07 0.08 0.09 0.09 0.07 0.06 0.05
0.06 0.06 0.07 0.08 0.07 0.08 0.08 0.08 0.07 0.06 0.06 0.05 0.05 0.05 0.05 0.05 0.04 0.04 0.05 0.06 0.06 0.05 0.04 0.05 0.06 0.06 0.06 0.07 0.07 0.09 0.09 0.09 0.11 0.12 0.11 0.07 0.04 0.03
0.07 0.07 0.07 0.08 0.08 0.08 0.08 0.07 0.07 0.06 0.06 0.06 0.06 0.06 0.06 0.06 0.05 0.04 0.04 0.05 0.04 0.05 0.05 0.06 0.07 0.05 0.06 0.06 0.09 0.12 0.11 0.11 0.11 0.12 0.12 0.09 0.05 0.04
0.07 0.07 0.07 0.07 0.06 0.06 0.07 0.07 0.06 0.05 0.05 0.05 0.05 0.05 0.04 0.04 0.04 0.04 0.04 0.05 0.04 0.04 0.05 0.06 0.07 0.06 0.06 0.06 0.08 0.09 0.11 0.11 0.10 0.10 0.10 0.09 0.07 0.06
0.08 0.09 0.08 0.07 0.06 0.07 0.07 0.07 0.06 0.06 0.05 0.05 0.04 0.04 0.04 0.04 0.04 0.03 0.04 0.04 0.04 0.04 0.05 0.06 0.06 0.06 0.06 0.06 0.06 0.06 0.07 0.08 0.08 0.07 0.07 0.08 0.07 0.06
0.09 0.08 0.08 0.08 0.07 0.07 0.06 0.06 0.05 0.05 0.05 0.05 0.05 0.05 0.05 0.04 0.04 0.03 0.03 0.04 0.04 0.03 0.04 0.06 0.06 0.05 0.06 0.06 0.06 0.05 0.05 0.06 0.07 0.06 0.05 0.06 0.08 0.07
0.09 0.09 0.08 0.07 0.07 0.06 0.05 0.05 0.04 0.04 0.04 0.04 0.04 0.04 0.04 0.04 0.04 0.04 0.04 0.04 0.04 0.03 0.03 0.04 0.05 0.05 0.05 0.06 0.07 0.06 0.05 0.05 0.05 0.05 0.05 0.06 0.07 0.07
0.07 0.08 0.08 0.07 0.06 0.05 0.05 0.05 0.05 0.05 0.05 0.05 0.05 0.05 0.04 0.04 0.04 0.04 0.04 0.04 0.03 0.03 0.03 0.03 0.04 0.04 0.05 0.06 0.07 0.06 0.05 0.04 0.03 0.04 0.05 0.06 0.07 0.07
0.07 0.07 0.07 0.07 0.07 0.06 0.06 0.06 0.06 0.06 0.06 0.06 0.06 0.05 0.05 0.04 0.04 0.04 0.03 0.03 0.03 0.03 0.03 0.03 0.03 0.04 0.04 0.05 0.06 0.06 0.04 0.04 0.03 0.03 0.03 0.04 0.05 0.06
0.08 0.07 0.07 0.07 0.07 0.07 0.06 0.06 0.06 0.06 0.06 0.05 0.05 0.05 0.04 0.04 0.04 0.03 0.03 0.03 0.03 0.03 0.03 0.04 0.04 0.03 0.03 0.03 0.03 0.04 0.03 0.03 0.03 0.04 0.04 0.04 0.04 0.04
0.07 0.07 0.07 0.06 0.06 0.06 0.06 0.06 0.06 0.06 0.07 0.07 0.06 0.06 0.05 0.04 0.04 0.04 0.04 0.04 0.03 0.03 0.03 0.04 0.03 0.02 0.02 0.02 0.02 0.02 0.02 0.02 0.02 0.03 0.04 0.04 0.04 0.04
0.06 0.06 0.06 0.06 0.06 0.06 0.06 0.06 0.05 0.06 0.06 0.06 0.06 0.06 0.06 0.05 0.05 0.04 0.04 0.03 0.03 0.03 0.03 0.03 0.02 0.02 0.02 0.01 0.01 0.01 0.01 0.01 0.01 0.02 0.03 0.03 0.04 0.04
MSLP
1014.90 1015.26 1015.67 1016.12 1016.63 1017.21 1017.85 1018.55 1019.30 1020.08 1020.89 1021.70 1022.48 1023.21 1023.86 1024.43 1024.90 1025.27 1025.56 1025.78 1025.96 1026.11 1026.23 1026.34 1026.43 1026.49 1026.51 1026.48 1026.38 1026.22 1026.00 1025.72 1025.41 1025.06 1024.70 1024.33 1023.94 1023.56
1014.05 1014.39 1014.74 1015.15 1015.62 1016.18 1016.81 1017.54 1018.34 1019.20 1020.10 1021.01 1021.89 1022.73 1023.48 1024.14 1024.68 1025.13 1025.48 1025.75 1025.96 1026.14 1026.29 1026.42 1026.53 1026.60 1026.63 1026.62 1026.54 1026.40 1026.20 1025.96 1025.68 1025.37 1025.04 1024.70 1024.35 1023.99
1013.13 1013.45 1013.77 1014.15 1014.59 1015.12 1015.75 1016.49 1017.33 1018.25 1019.23 1020.23 1021.21 1022.14 1022.99 1023.73 1024.36 1024.87 1025.28 1025.61 1025.87 1026.09 1026.27 1026.43 1026.55 1026.65 1026.70 1026.69 1026.63 1026.52 1026.35 1026.14 1025.89 1025.62 1025.34 1025.04 1024.73 1024.40
1012.13 1012.45 1012.77 1013.13 1013.55 1014.07 1014.70 1015.46 1016.32 1017.29 1018.32 1019.38 1020.44 1021.44 1022.36 1023.18 1023.88 1024.46 1024.93 1025.32 1025.64 1025.91 1026.14 1026.34 1026.50 1026.63 1026.70 1026.73 1026.69 1026.60 1026.46 1026.28 1026.07 1025.85 1025.61 1025.35 1025.08 1024.78
1011.06 1011.40 1011.74 1012.10 1012.52 1013.04 1013.67 1014.43 1015.31 1016.29 1017.35 1018.45 1019.55 1020.60 1021.57 1022.44 1023.19 1023.84 1024.38 1024.84 1025.23 1025.57 1025.87 1026.13 1026.35 1026.53 1026.65 1026.71 1026.71 1026.66 1026.55 1026.41 1026.24 1026.05 1025.85 1025.64 1025.40 1025.14
1009.93 1010.31 1010.69 1011.08 1011.51 1012.04 1012.67 1013.42 1014.29 1015.27 1016.32 1017.42 1018.52 1019.58 1020.58 1021.48 1022.28 1022.98 1023.59 1024.13 1024.60 1025.03 1025.43 1025.78 1026.08 1026.33 1026.52 1026.64 1026.69 1026.68 1026.62 1026.52 1026.38 1026.24 1026.07 1025.89 1025.69 1025.46
1008.76 1009.20 1009.62 1010.05 1010.51 1011.04 1011.66 1012.39 1013.24 1014.19 1015.21 1016.28 1017.36 1018.40 1019.39 1020.31 1021.14 1021.89 1022.57 1023.19 1023.76 1024.30 1024.80 1025.26 1025.67 1026.02 1026.30 1026.49 1026.61 1026.66 1026.65 1026.59 1026.49 1026.38 1026.25 1026.11 1025.94 1025.73
1007.56 1008.06 1008.54 1009.00 1009.49 1010.02 1010.63 1011.34 1012.15 1013.05 1014.02 1015.04 1016.07 1017.09 1018.06 1018.98 1019.83 1020.62 1021.36 1022.07 1022.74 1023.38 1024.00 1024.58 1025.11 1025.57 1025.95 1026.24 1026.44 1026.55 1026.60 1026.59 1026.54 1026.47 1026.37 1026.25 1026.11 1025.93
1006.33 1006.90 1007.43 1007.93 1008.44 1008.97 1009.57 1010.25 1011.01 1011.85 1012.77 1013.74 1014.72 1015.70 1016.65 1017.56 1018.43 1019.26 1020.06 1020.84 1021.60 1022.35 1023.08 1023.78 1024.42 1024.99 1025.48 1025.86 1026.15 1026.34 1026.46 1026.50 1026.50 1026.47 1026.40 1026.32 1026.20 1026.05
1005.07 1005.70 1006.27 1006.81 1007.34 1007.88 1008.46 1009.11 1009.84 1010.64 1011.51 1012.43 1013.38 1014.33 1015.27 1016.18 1017.07 1017.93 1018.78 1019.62 1020.46 1021.30 1022.12 1022.91 1023.65 1024.32 1024.90 1025.38 1025.75 1026.01 1026.20 1026.30 1026.35 1026.36 1026.33 1026.28 1026.19 1026.07
1003.79 1004.46 1005.08 1005.64 1006.19 1006.73 1007.31 1007.95 1008.66 1009.45 1010.30 1011.21 1012.14 1013.09 1014.04 1014.96 1015.87 1016.77 1017.65 1018.54 1019.42 1020.31 1021.19 1022.05 1022.85 1023.59 1024.25 1024.80 1025.24 1025.58 1025.82 1025.99 1026.09 1026.15 1026.16 1026.15 1026.09 1026.01
1002.47 1003.18 1003.83 1004.43 1004.99 1005.55 1006.14 1006.79 1007.52 1008.31 1009.18 1010.11 1011.08 1012.05 1013.03 1013.98 1014.92 1015.85 1016.76 1017.67 1018.58 1019.48 1020.39 1021.26 1022.10 1022.88 1023.57 1024.17 1024.67 1025.06 1025.36 1025.58 1025.74 1025.84 1025.90 1025.93 1025.92 1025.87
1001.11 1001.86 1002.54 1003.16 1003.76 1004.35 1004.97 1005.66 1006.42 1007.27 1008.19 1009.18 1010.20 1011.24 1012.26 1013.27 1014.25 1015.20 1016.13 1017.05 1017.95 1018.85 1019.74 1020.61 1021.43 1022.21 1022.92 1023.54 1024.06 1024.50 1024.84 1025.11 1025.32 1025.47 1025.57 1025.64 1025.67 1025.66
999.72 1000.50 1001.21 1001.87 1002.49 1003.12 1003.80 1004.54 1005.37 1006.30 1007.30 1008.38 1009.49 1010.61 1011.71 1012.79 1013.82 1014.80 1015.74 1016.65 1017.53 1018.40 1019.25 1020.07 1020.87 1021.62 1022.31 1022.92 1023.46 1023.92 1024.29 1024.60 1024.84 1025.04 1025.18 1025.29 1025.36 1025.39
998.30 999.11 999.84 1000.53 1001.20 1001.88 1002.62 1003.43 1004.35 1005.36 1006.47 1007.64 1008.86 1010.08 1011.27 1012.42 1013.50 1014.52 1015.48 1016.38 1017.24 1018.06 1018.86 1019.64 1020.38 1021.09 1021.74 1022.34 1022.88 1023.34 1023.73 1024.07 1024.34 1024.57 1024.75 1024.90 1025.00 1025.07
996.86 997.69 998.45 999.17 999.88 1000.61 1001.40 1002.29 1003.29 1004.39 1005.60 1006.88 1008.19 1009.51 1010.79 1012.02 1013.16 1014.22 1015.20 1016.10 1016.95 1017.74 1018.50 1019.23 1019.93 1020.59 1021.21 1021.79 1022.31 1022.77 1023.18 1023.53 1023.83 1024.08 1024.29 1024.46 1024.60 1024.70
995.42 996.26 997.04 997.78 998.51 999.28 1000.13 1001.07 1002.13 1003.31 1004.59 1005.95 1007.36 1008.76 1010.12 1011.42 1012.63 1013.74 1014.75 1015.68 1016.53 1017.32 1018.06 1018.77 1019.44 1020.08 1020.68 1021.24 1021.76 1022.22 1022.63 1022.99 1023.30 1023.57 1023.80 1024.00 1024.16 1024.28
994.01 994.84 995.62 996.36 997.11 997.89 998.76 999.73 1000.83 1002.04 1003.38 1004.79 1006.25 1007.71 1009.14 1010.50 1011.77 1012.95 1014.02 1014.99 1015.88 1016.70 1017.47 1018.19 1018.87 1019.52 1020.12 1020.68 1021.20 1021.67 1022.08 1022.45 1022.77 1023.06 1023.30 1023.51 1023.69 1023.84
992.67 993.47 994.22 994.95 995.67 996.44 997.30 998.27 999.36 1000.58 1001.92 1003.34 1004.83 1006.32 1007.79 1009.21 1010.55 1011.79 1012.94 1013.99 1014.96 1015.85 1016.68 1017.46 1018.19 1018.87 1019.51 1020.10 1020.63 1021.11 1021.54 1021.92 1022.25 1022.55 1022.80 1023.02 1023.22 1023.38
991.46 992.20 992.90 993.57 994.24 994.97 995.78 996.71 997.76 998.94 1000.25 1001.65 1003.13 1004.63 1006.13 1007.59 1008.98 1010.31 1011.54 1012.70 1013.77 1014.77 1015.71 1016.58 1017.39 1018.15 1018.85 1019.48 1020.05 1020.56 1021.01 1021.40 1021.75 1022.05 1022.32 1022.55 1022.75 1022.93
990.43 991.08 991.69 992.28 992.88 993.53 994.27 995.12 996.10 997.22 998.47 999.82 1001.26 1002.74 1004.24 1005.74 1007.19 1008.59 1009.93 1011.20 1012.40 1013.53 1014.59 1015.59 1016.51 1017.36 1018.14 1018.84 1019.46 1020.01 1020.49 1020.90 1021.26 1021.57 1021.85 1022.09 1022.31 1022.50
989.64 990.17 990.67 991.15 991.66 992.22 992.86 993.62 994.51 995.54 996.70 997.98 999.36 1000.82 1002.31 1003.82 1005.32 1006.80 1008.24 1009.62 1010.95 1012.22 1013.42 1014.54 1015.59 1016.55 1017.42 1018.19 1018.87 1019.46 1019.97 1020.41 1020.78 1021.11 1021.40 1021.65 1021.88 1022.09
989.11 989.51 989.89 990.26 990.65 991.11 991.65 992.31 993.10 994.03 995.10 996.31 997.63 999.04 1000.51 1002.02 1003.56 1005.09 1006.61 1008.10 1009.55 1010.94 1012.27 1013.51 1014.67 1015.73 1016.68 1017.52 1018.26 1018.90 1019.44 1019.90 1020.30 1020.64 1020.94 1021.21 1021.45 1021.67
Thickness
5535 5534 5534 5533 5532 5531 5530 5529 5528 5531 5536 5537 5533 5532 5530 5530 5530 5530 5530 5530 5530 5529 5528 5528 5527 5528 5529 5528 5528 5528 5527 5526 5526 5525 5525 5525 5526 5526
5525 5524 5524 5525 5523 5521 5520 5519 5519 5520 5524 5527 5523 5521 5520 5520 5519 5519 5520 5520 5520 5520 5519 5518 5518 5519 5519 5518 5518 5517 5516 5516 5516 5516 5515 5516 5516 5516
5517 5515 5515 5514 5513 5512 5511 5510 5511 5511 5513 5515 5512 5511 5509 5510 5510 5510 5510 5510 5511 5510 5509 5509 5508 5509 5509 5509 5508 5507 5507 5506 5506 5506 5506 5507 5507 5507
5508 5507 5507 5504 5504 5503 5503 5502 5503 5503 5503 5504 5502 5500 5500 5500 5500 5500 5500 5501 5501 5501 5500 5499 5499 5499 5499 5499 5498 5498 5497 5496 5496 5496 5497 5498 5497 5497
5498 5498 5497 5495 5495 5494 5494 5494 5494 5494 5494 5493 5493 5491 5490 5489 5489 5490 5490 5490 5490 5491 5490 5489 5489 5489 5489 5489 5489 5489 5488 5487 5487 5487 5487 5487 5487 5487
5488 5488 5488 5486 5487 5486 5486 5485 5485 5485 5484 5484 5483 5482 5481 5480 5479 5480 5480 5480 5480 5481 5480 5479 5479 5479 5480 5480 5480 5480 5479 5479 5478 5478 5478 5478 5477 5477
5479 5478 5479 5479 5478 5477 5477 5477 5476 5476 5476 5475 5475 5474 5473 5471 5471 5471 5470 5470 5470 5470 5469 5469 5469 5470 5470 5470 5470 5470 5470 5469 5469 5468 5468 5468 5468 5467
5470 5470 5470 5469 5468 5468 5468 5467 5467 5467 5468 5468 5468 5468 5467 5465 5463 5461 5460 5459 5461 5460 5458 5459 5458 5459 5459 5460 5460 5460 5459 5459 5459 5459 5459 5458 5457 5457
5460 5460 5460 5459 5458 5458 5458 5457 5457 5458 5458 5459 5460 5461 5459 5458 5454 5452 5452 5451 5452 5450 5446 5449 5449 5449 5449 5450 5449 5449 5448 5448 5449 5449 5448 5448 5447 5446
5449 5449 5450 5449 5449 5448 5448 5447 5448 5448 5449 5450 5452 5453 5451 5448 5446 5444 5443 5441 5439 5438 5436 5439 5440 5440 5439 5439 5439 5439 5439 5438 5438 5439 5438 5437 5437 5436
5438 5438 5439 5439 5439 5437 5437 5437 5437 5438 5438 5439 5440 5441 5440 5438 5435 5433 5431 5431 5430 5429 5427 5427 5429 5428 5429 5430 5429 5429 5429 5429 5429 5428 5428 5427 5427 5426
5427 5428 5428 5428 5428 5427 5427 5427 5427 5428 5427 5428 5428 5428 5428 5426 5424 5424 5423 5423 5422 5421 5418 5416 5416 5416 5419 5421 5420 5419 5420 5419 5419 5418 5418 5418 5417 5416
5416 5418 5419 5418 5418 5417 5417 5417 5417 5416 5417 5417 5417 5417 5416 5415 5414 5413 5412 5412 5413 5412 5409 5406 5406 5406 5407 5409 5410 5410 5410 5410 5409 5408 5408 5408 5408 5407
5406 5408 5408 5407 5407 5406 5406 5406 5405 5404 5405 5405 5406 5406 5405 5404 5403 5402 5401 5401 5401 5401 5399 5398 5398 5398 5398 5399 5400 5401 5400 5399 5400 5399 5399 5398 5398 5397
5394 5396 5397 5397 5396 5395 5394 5394 5392 5393 5393 5394 5395 5394 5393 5393 5392 5391 5390 5390 5390 5390 5389 5389 5390 5390 5390 5390 5390 5390 5390 5390 5390 5390 5390 5389 5389 5388
5383 5384 5384 5384 5383 5382 5382 5381 5381 5381 5382 5382 5382 5382 5381 5382 5382 5382 5382 5382 5381 5380 5380 5380 5380 5381 5382 5381 5381 5381 5381 5380 5380 5380 5380 5380 5380 5380
5372 5372 5372 5371 5371 5371 5370 5370 5370 5370 5370 5370 5370 5371 5371 5372 5373 5373 5373 5373 5373 5372 5372 5371 5371 5372 5373 5373 5373 5373 5373 5372 5371 5370 5371 5372 5372 5372
5360 5361 5361 5360 5360 5360 5360 5360 5360 5360 5360 5361 5362 5363 5363 5364 5364 5364 5364 5365 5365 5364 5364 5364 5365 5366 5367 5365 5364 5365 5365 5364 5363 5363 5363 5365 5367 5366
5350 5350 5350 5349 5349 5349 5349 5350 5351 5352 5352 5353 5354 5355 5356 5357 5357 5356 5357 5357 5357 5357 5357 5357 5358 5360 5362 5361 5358 5355 5356 5356 5356 5357 5357 5358 5360 5360
5340 5340 5340 5340 5340 5341 5342 5342 5343 5344 5345 5347 5348 5349 5350 5350 5350 5350 5350 5350 5350 5350 5351 5351 5351 5351 5353 5352 5350 5349 5348 5349 5350 5351 5351 5351 5352 5353
5331 5331 5331 5331 5332 5333 5334 5335 5336 5337 5339 5340 5341 5342 5342 5343 5343 5343 5344 5343 5344 5344 5345 5345 5344 5343 5343 5343 5343 5344 5343 5341 5342 5343 5344 5345 5347 5348
5323 5323 5323 5324 5325 5326 5327 5328 5329 5330 5332 5333 5335 5335 5336 5336 5337 5337 5338 5338 5338 5338 5338 5338 5337 5337 5337 5338 5338 5337 5336 5335 5335 5336 5337 5338 5339 5340
5315 5316 5317 5317 5318 5319 5320 5321 5322 5324 5325 5326 5327 5328 5329 5330 5331 5332 5332 5332 5332 5332 5332 5331 5331 5331 5330 5330 5330 5329 5328 5329 5330 5331 5332 5331 5332 5332